STARLINK-3975 (52620 NORAD) Tracking and Keplerian Element Data

This shows tracking and keplerian element data for the satellite.

Feedback or suggestion? Click here.




ElementValue
Catalog52620
NameSTARLINK-3975
Epoch Orbit130
Epoch Day167.08334491
Epoch Year2022
RAAN282.7301
Inclination53.2175
Eccentricity0.0001243
Argument of Perigee65.246
Mean Anonmoly28.691
Mean Motion15.3740765
Decay Rate-0.00841702
L11 52620U 22052Y 22167.08334491 -.00841702 00000+0 -24476-1 0 9993
L22 52620 53.2175 282.7301 0001243 65.2460 28.6910 15.37407650 1304

Live tracking and technical data element details for STARLINK-3975 (NORAD 52620). STARLINK-3975 can be tracked NOW for your location showing map with azimuth and elevation plus other details from your city location.

Track the satellite on the map from your city or location and see movement details for azimuth, elevation, latitude, longitude, range, height, and movement on the map or in text.







IsCatalogInMostPopularTable: catalog: 52620, numindb: 1
Update: records affected: 1



GetName: 52620 STARLINK-3975

Hit Count: updated at: Mon, 27 Jun 2022 04:37:51 GMT